Location: Newark
(40.7119°N, 74.0097°W)
Time: 17:58:54
(UTC+00:00)

Hubble Space Telescope - Visible Passes

Search period start: 05 April 2020 00:00
Search period end: 15 April 2020 00:00
Orbit: 536 x 540 km, 28.5° (Epoch: 04 April)

Date Brightness Start Highest point End Pass type
(mag) Time Alt. Az. Time Alt. Az. Time Alt. Az.
09 Apr 3.3 01:31:32 10° SW 01:31:55 11° SSW 01:31:55 11° SSW visible
10 Apr 3.0 01:20:46 10° SW 01:21:59 13° SSW 01:21:59 13° SSW visible
11 Apr 2.9 01:10:04 10° SW 01:12:00 14° S 01:12:00 14° S visible
12 Apr 2.9 00:59:26 10° SW 01:01:33 14° S 01:01:59 13° S visible
13 Apr 3.0 00:48:54 10° SW 00:50:45 13° S 00:51:57 12° S visible
14 Apr 3.1 00:38:31 10° SSW 00:39:57 12° SSW 00:41:25 10° S visible
